EDT,Max TemperatureF,Mean TemperatureF,Min TemperatureF,Max Dew PointF,MeanDew PointF,Min DewpointF,Max Humidity, Mean Humidity, Min Humidity, Max Sea Level PressureIn, Mean Sea Level PressureIn, Min Sea Level PressureIn, Max VisibilityMiles, Mean VisibilityMiles, Min VisibilityMiles, Max Wind SpeedMPH, Mean Wind SpeedMPH, Max Gust SpeedMPH,PrecipitationIn, CloudCover, Events, WindDirDegrees
2012-3-1,84,76,67,70,66,62,93,78,48,30.14,30.08,30.03,10,8,0,16,4,21,0.00,2,Fog,202
2012-3-2,85,76,66,69,66,63,93,82,48,30.06,30.01,29.97,10,8,0,17,6,23,0.00,2,Fog,176
2012-3-3,84,76,67,71,68,64,97,78,59,29.98,29.92,29.86,10,9,0,22,8,32,0.00,2,Fog,185
2012-3-4,77,66,55,72,57,30,87,67,23,30.22,29.95,29.80,10,9,2,29,15,38,0.27,5,Rain,293
2012-3-5,76,62,48,48,35,25,72,40,16,30.38,30.31,30.23,10,10,10,21,7,25,0.00,0,,40
2012-3-6,81,66,50,58,50,43,78,59,33,30.39,30.34,30.28,10,10,10,24,11,33,0.00,2,,64
2012-3-7,85,74,62,63,59,56,84,65,43,30.35,30.29,30.23,10,10,10,21,11,30,0.00,4,,86
2012-3-8,85,76,66,66,64,63,93,73,51,30.26,30.22,30.15,10,10,9,21,10,32,T,3,,92
2012-3-9,85,76,66,67,65,62,93,77,48,30.21,30.15,30.09,10,10,6,15,5,21,T,6,Rain,104
2012-3-10,86,77,67,67,65,60,90,71,42,30.19,30.14,30.11,10,10,9,16,5,25,0.01,5,Rain,33
2012-3-11,86,77,68,66,64,61,90,71,44,30.26,30.21,30.17,10,10,10,17,9,23,T,6,,94
2012-3-12,85,76,66,63,60,55,87,66,46,30.27,30.22,30.17,10,10,10,18,9,25,0.00,3,,86
2012-3-13,85,74,63,61,58,54,93,62,34,30.25,30.20,30.15,10,10,10,15,7,20,0.00,1,,77
2012-3-14,86,74,61,62,59,57,90,64,40,30.23,30.18,30.12,10,10,10,16,6,22,0.00,2,,69
2012-3-15,88,76,63,65,62,58,87,69,37,30.23,30.18,30.13,10,10,10,22,8,29,0.00,2,,75
2012-3-16,87,76,64,64,60,54,93,65,34,30.22,30.17,30.10,10,10,10,15,7,20,0.00,1,,80
2012-3-17,87,74,61,63,57,48,93,58,26,30.24,30.18,30.12,10,10,10,18,6,23,0.00,0,,85
2012-3-18,87,74,60,62,59,54,90,63,32,30.24,30.18,30.11,10,10,10,18,7,24,0.00,1,,85
2012-3-19,88,76,64,62,58,52,87,59,30,30.19,30.12,30.05,10,10,10,15,7,23,0.00,1,,92
2012-3-20,86,75,63,64,59,56,87,63,37,30.10,30.06,30.01,10,10,10,18,8,23,0.00,1,,107
2012-3-21,90,77,64,67,64,59,93,68,38,30.13,30.07,30.01,10,10,9,18,8,25,0.00,2,,123
2012-3-22,89,79,69,69,66,61,90,69,42,30.15,30.10,30.04,10,10,10,18,8,24,0.00,4,Thunderstorm,126
2012-3-23,87,77,67,66,63,57,93,65,40,30.13,30.07,30.02,10,10,8,14,5,17,0.00,3,,119
2012-3-24,85,77,69,67,64,61,84,67,47,30.06,30.01,29.95,10,10,10,15,6,21,0.00,1,,212
2012-3-25,82,75,68,70,65,57,87,72,49,29.97,29.92,29.86,10,9,6,24,10,32,0.24,2,Rain-Thunderstorm,254
2012-3-26,86,74,62,62,54,44,90,55,25,30.03,29.96,29.92,10,10,10,16,7,22,0.00,0,,332
2012-3-27,88,75,62,63,56,51,78,56,29,30.17,30.08,30.01,10,10,10,16,8,22,0.00,1,,79
2012-3-28,87,75,62,64,59,50,90,61,29,30.18,30.12,30.04,10,10,10,18,7,22,0.01,2,Rain,113
2012-3-29,86,75,63,64,60,53,87,67,34,30.09,30.04,29.97,10,10,10,14,3,18,0.00,1,,170
2012-3-30,88,76,63,64,59,52,81,62,29,30.08,30.03,30.00,10,10,10,15,5,20,0.00,0,,160
2012-3-31,87,76,65,70,66,61,87,71,55,30.02,29.97,29.91,10,10,10,18,8,24,0.00,2,,205